User: anonymous   Login
Location: *
(51.1248°S, 108.4023°W)
Time: 18:38:20
(UTC+00:00)
Language:

NOAA 11 - Orbit

View from above orbital plane
View from above orbital plane
View from above satellite
View from above satellite

Ground track
Ground track

The orbit data is extracted from the following two-line orbital elements,

1 19531U 88089A   21263.42223975 -.00000017  00000-0  12399-4 0  9997
2 19531  98.4085 262.6368 0010175 233.8574 126.1660 14.15279442702879
Epoch (UTC): 20 September 2021 10:08:01
Eccentricity: 0.0010175
inclination: 98.4085°
perigee height: 834 km
apogee height: 849 km
right ascension of ascending node: 262.6368°
argument of perigee: 233.8574°
revolutions per day: 14.15279442
mean anomaly at epoch: 126.1660°
orbit number at epoch: 70287

The dashed part of the orbit path shows where the satellite is in the earth's shadow,  

DLR